• en France
  • Liste des pays
  • À 7 jours
  • Température de l'eau
  • Carte satellitaire
  • Carte météo
  • Widgets météo
  • user-avatar
    Se connecter

    Météo par heure à Midlothian

    Ce jour, 18 Octobre, Jeudi

    Heure Température Précipitation Vent Pression Humidité
    00:00 +3°C° 0 mm 3 m/s 745 mmHg 92%
    01:00 +3°C° 0 mm 3 m/s 745 mmHg 92%
    02:00 +2°C° 0 mm 3 m/s 745 mmHg 92%
    03:00 +2°C° 0 mm 3 m/s 746 mmHg 92%
    04:00 +3°C° 0 mm 2 m/s 746 mmHg 92%
    05:00 +3°C° 0 mm 2 m/s 746 mmHg 92%
    06:00 +3°C° 0 mm 2 m/s 746 mmHg 92%
    07:00 +4°C° 0 mm 2 m/s 746 mmHg 89%
    08:00 +5°C° 0 mm 2 m/s 747 mmHg 86%
    09:00 +6°C° 0 mm 2 m/s 747 mmHg 82%
    10:00 +7°C° 0 mm 2 m/s 747 mmHg 77%
    11:00 +9°C° 0 mm 1 m/s 747 mmHg 72%
    12:00 +11°C° 0 mm 1 m/s 747 mmHg 66%
    13:00 +11°C° 0 mm 1 m/s 747 mmHg 67%
    14:00 +11°C° 0 mm 1 m/s 746 mmHg 67%
    15:00 +11°C° 0 mm 1 m/s 746 mmHg 68%
    16:00 +8°C° 0 mm 2 m/s 746 mmHg 74%
    17:00 +7°C° 0 mm 2 m/s 746 mmHg 81%
    18:00 +5°C° 0 mm 2 m/s 745 mmHg 87%
    19:00 +5°C° 0 mm 2 m/s 745 mmHg 88%
    20:00 +4°C° 0 mm 2 m/s 745 mmHg 89%
    21:00 +3°C° 0 mm 3 m/s 745 mmHg 91%
    22:00 +3°C° 0 mm 3 m/s 745 mmHg 91%
    23:00 +2°C° 0 mm 3 m/s 744 mmHg 92%

    Demain, 19 Octobre, Vendredi

    Heure Température Précipitation Vent Pression Humidité
    00:00 +2°C° 0 mm 3 m/s 744 mmHg 92%
    01:00 +2°C° 0 mm 3 m/s 744 mmHg 92%
    02:00 +1°C° 0 mm 4 m/s 744 mmHg 92%
    03:00 +1°C° 0 mm 4 m/s 743 mmHg 92%
    04:00 +3°C° 0 mm 4 m/s 743 mmHg 92%
    05:00 +4°C° 0 mm 4 m/s 743 mmHg 91%
    06:00 +5°C° 0 mm 5 m/s 743 mmHg 91%
    07:00 +6°C° 0 mm 5 m/s 743 mmHg 88%
    08:00 +7°C° 0 mm 6 m/s 743 mmHg 85%
    09:00 +7°C° 0 mm 6 m/s 743 mmHg 82%
    10:00 +8°C° 0 mm 6 m/s 743 mmHg 81%
    11:00 +9°C° 0 mm 6 m/s 743 mmHg 79%
    12:00 +9°C° 0 mm 6 m/s 744 mmHg 77%
    13:00 +10°C° 0 mm 5 m/s 744 mmHg 79%
    14:00 +10°C° 0 mm 5 m/s 744 mmHg 80%
    15:00 +10°C° 0 mm 5 m/s 744 mmHg 82%
    16:00 +10°C° 0 mm 4 m/s 744 mmHg 86%
    17:00 +8°C° 0 mm 4 m/s 744 mmHg 90%
    18:00 +8°C° 0 mm 3 m/s 745 mmHg 94%
    19:00 +7°C° 0 mm 3 m/s 745 mmHg 94%
    20:00 +7°C° 0 mm 3 m/s 745 mmHg 94%
    21:00 +7°C° 0 mm 3 m/s 746 mmHg 95%
    22:00 +7°C° 0 mm 3 m/s 746 mmHg 95%
    23:00 +6°C° 0 mm 4 m/s 746 mmHg 95%

    Après-demain, 20 Octobre, Samedi

    Heure Température Précipitation Vent Pression Humidité
    00:00 +6°C° 0 mm 4 m/s 746 mmHg 95%
    01:00 +6°C° 0 mm 4 m/s 746 mmHg 95%
    02:00 +6°C° 0 mm 4 m/s 746 mmHg 94%
    03:00 +6°C° 0 mm 4 m/s 746 mmHg 94%
    04:00 +7°C° 0 mm 4 m/s 746 mmHg 94%
    05:00 +7°C° 0 mm 4 m/s 745 mmHg 94%
    06:00 +7°C° 0 mm 5 m/s 745 mmHg 94%
    07:00 +8°C° 0 mm 5 m/s 745 mmHg 92%
    08:00 +9°C° 0 mm 5 m/s 746 mmHg 90%
    09:00 +10°C° 0 mm 6 m/s 746 mmHg 88%
    10:00 +10°C° 0 mm 6 m/s 746 mmHg 88%
    11:00 +11°C° 0 mm 6 m/s 746 mmHg 88%
    12:00 +11°C° 0 mm 6 m/s 746 mmHg 88%
    13:00 +11°C° 0 mm 6 m/s 745 mmHg 89%
    14:00 +11°C° 0 mm 6 m/s 745 mmHg 90%
    15:00 +11°C° 0 mm 6 m/s 745 mmHg 91%
    16:00 +11°C° 0 mm 6 m/s 745 mmHg 92%
    17:00 +11°C° 0 mm 6 m/s 745 mmHg 93%
    18:00 +12°C° 0 mm 5 m/s 745 mmHg 95%
    19:00 +12°C° 0 mm 5 m/s 745 mmHg 95%
    20:00 +12°C° 0 mm 5 m/s 745 mmHg 95%
    21:00 +13°C° 0 mm 5 m/s 745 mmHg 95%
    22:00 +13°C° 0 mm 5 m/s 745 mmHg 95%
    23:00 +13°C° 0 mm 5 m/s 745 mmHg 95%

    21 Octobre, Dimanche

    Heure Température Précipitation Vent Pression Humidité
    00:00 +13°C° 0 mm 6 m/s 745 mmHg 95%
    01:00 +13°C° 0 mm 6 m/s 744 mmHg 95%
    02:00 +13°C° 0 mm 6 m/s 744 mmHg 95%
    03:00 +14°C° 0 mm 6 m/s 744 mmHg 95%
    04:00 +14°C° 0.1 mm 6 m/s 743 mmHg 94%
    05:00 +14°C° 0.1 mm 6 m/s 743 mmHg 94%
    06:00 +14°C° 0.1 mm 6 m/s 743 mmHg 94%
    07:00 +14°C° 0.1 mm 6 m/s 743 mmHg 93%
    08:00 +14°C° 0.1 mm 7 m/s 743 mmHg 92%
    09:00 +14°C° 0.1 mm 7 m/s 743 mmHg 91%
    10:00 +12°C° 0.2 mm 7 m/s 743 mmHg 90%
    11:00 +12°C° 0.2 mm 7 m/s 743 mmHg 89%
    12:00 +11°C° 0.2 mm 7 m/s 744 mmHg 87%
    13:00 +10°C° 0.2 mm 7 m/s 744 mmHg 86%
    14:00 +9°C° 0.2 mm 7 m/s 745 mmHg 85%
    15:00 +8°C° 0.2 mm 6 m/s 745 mmHg 83%
    16:00 +7°C° 0 mm 6 m/s 746 mmHg 85%
    17:00 +7°C° 0 mm 6 m/s 747 mmHg 87%
    18:00 +5°C° 0 mm 6 m/s 747 mmHg 88%
    19:00 +5°C° 0 mm 6 m/s 748 mmHg 88%
    20:00 +4°C° 0 mm 6 m/s 749 mmHg 87%
    21:00 +3°C° 0 mm 6 m/s 750 mmHg 86%
    22:00 +3°C° 0 mm 6 m/s 750 mmHg 85%
    23:00 +3°C° 0 mm 5 m/s 750 mmHg 85%

    22 Octobre, Lundi

    Heure Température Précipitation Vent Pression Humidité
    00:00 +2°C° 0 mm 5 m/s 751 mmHg 84%
    01:00 +2°C° 0 mm 5 m/s 751 mmHg 84%
    02:00 +2°C° 0 mm 5 m/s 751 mmHg 84%
    03:00 +2°C° 0 mm 5 m/s 751 mmHg 84%
    04:00 +2°C° 0 mm 5 m/s 752 mmHg 85%
    05:00 +2°C° 0 mm 5 m/s 752 mmHg 86%
    06:00 +2°C° 0 mm 5 m/s 752 mmHg 87%
    07:00 +3°C° 0 mm 6 m/s 752 mmHg 84%
    08:00 +4°C° 0 mm 6 m/s 753 mmHg 82%
    09:00 +5°C° 0 mm 6 m/s 753 mmHg 80%
    10:00 +5°C° 0 mm 7 m/s 753 mmHg 77%
    11:00 +6°C° 0 mm 8 m/s 753 mmHg 74%
    12:00 +7°C° 0 mm 8 m/s 753 mmHg 71%
    13:00 +7°C° 0 mm 8 m/s 753 mmHg 72%
    14:00 +7°C° 0 mm 8 m/s 753 mmHg 74%
    15:00 +7°C° 0 mm 8 m/s 752 mmHg 75%
    16:00 +6°C° 0 mm 8 m/s 752 mmHg 77%
    17:00 +6°C° 0 mm 8 m/s 752 mmHg 79%
    18:00 +6°C° 0 mm 7 m/s 752 mmHg 80%
    19:00 +6°C° 0 mm 7 m/s 752 mmHg 81%
    20:00 +6°C° 0 mm 7 m/s 752 mmHg 81%
    21:00 +6°C° 0 mm 7 m/s 752 mmHg 82%
    22:00 +6°C° 0 mm 7 m/s 752 mmHg 83%
    23:00 +6°C° 0 mm 7 m/s 752 mmHg 84%

    23 Octobre, Mardi

    Heure Température Précipitation Vent Pression Humidité
    00:00 +6°C° 0 mm 7 m/s 752 mmHg 85%
    01:00 +6°C° 0 mm 7 m/s 752 mmHg 86%
    02:00 +6°C° 0 mm 7 m/s 752 mmHg 87%
    03:00 +6°C° 0 mm 7 m/s 751 mmHg 87%
    04:00 +6°C° 0 mm 7 m/s 751 mmHg 87%
    05:00 +6°C° 0 mm 7 m/s 751 mmHg 87%
    06:00 +5°C° 0 mm 6 m/s 751 mmHg 86%
    07:00 +5°C° 0 mm 6 m/s 751 mmHg 85%
    08:00 +7°C° 0 mm 6 m/s 752 mmHg 84%
    09:00 +7°C° 0 mm 5 m/s 752 mmHg 82%
    10:00 +8°C° 0 mm 5 m/s 752 mmHg 78%
    11:00 +9°C° 0 mm 5 m/s 752 mmHg 74%
    12:00 +10°C° 0 mm 5 m/s 752 mmHg 70%
    13:00 +11°C° 0 mm 4 m/s 752 mmHg 71%
    14:00 +11°C° 0 mm 4 m/s 751 mmHg 71%
    15:00 +10°C° 0 mm 4 m/s 751 mmHg 72%
    16:00 +9°C° 0 mm 3 m/s 751 mmHg 78%
    17:00 +7°C° 0 mm 3 m/s 751 mmHg 83%
    18:00 +5°C° 0 mm 3 m/s 751 mmHg 89%
    19:00 +4°C° 0 mm 3 m/s 751 mmHg 90%
    20:00 +4°C° 0 mm 3 m/s 751 mmHg 92%
    21:00 +3°C° 0 mm 3 m/s 751 mmHg 93%
    22:00 +4°C° 0 mm 2 m/s 752 mmHg 93%
    23:00 +4°C° 0 mm 2 m/s 752 mmHg 94%
    Voir plus